Time,TemperatureF,DewpointF,PressureIn,WindDirection,WindDirectionDegrees,WindSpeedMPH,WindSpeedGustMPH,Humidity,HourlyPrecipIn,Conditions,Clouds,dailyrainin,SoftwareType,DateUTC
2013-08-28 11:44:00,75.0,-99.9,-100.00,North,-999,-999.0,-999.0,-999,0.00,,,0.00,,2013-08-28 17:44:00,
2013-08-28 12:22:00,75.0,-99.9,-100.00,North,-999,-999.0,-999.0,-999,0.00,,,0.00,,2013-08-28 18:22:00,
2013-08-28 12:32:00,75.0,-99.9,-100.00,North,-999,-999.0,-999.0,-999,0.00,,,0.00,,2013-08-28 18:32:00,
2013-08-28 12:42:00,75.0,-99.9,-100.00,North,-999,-999.0,-999.0,-999,0.00,,,0.00,,2013-08-28 18:42:00,
2013-08-28 13:22:00,78.0,-99.9,-100.00,North,-999,-999.0,-999.0,-999,0.00,,,0.00,,2013-08-28 19:22:00,
2013-08-28 13:32:00,78.0,-99.9,-100.00,North,-999,-999.0,-999.0,-999,0.00,,,0.00,,2013-08-28 19:32:00,
2013-08-28 13:42:00,78.0,-99.9,-100.00,North,-999,-999.0,-999.0,-999,0.00,,,0.00,,2013-08-28 19:42:00,
2013-08-28 14:23:00,79.0,-99.9,-100.00,North,-999,-999.0,-999.0,-999,0.00,,,-99.99,,2013-08-28 20:23:00,
2013-08-28 14:32:00,79.0,-99.9,-100.00,North,-999,-999.0,-999.0,-999,0.00,,,-99.99,,2013-08-28 20:32:00,
2013-08-28 14:43:00,79.0,-99.9,-100.00,North,-999,-999.0,-999.0,-999,0.00,,,-99.99,,2013-08-28 20:43:00,
2013-08-28 15:22:00,79.0,-99.9,-100.00,North,-999,-999.0,-999.0,-999,0.00,,,0.00,,2013-08-28 21:22:00,
2013-08-28 15:35:00,79.0,-99.9,-100.00,North,-999,-999.0,-999.0,-999,0.00,,,0.00,,2013-08-28 21:35:00,
2013-08-28 15:44:00,79.0,-99.9,-100.00,North,-999,-999.0,-999.0,-999,0.00,,,0.00,,2013-08-28 21:44:00,
2013-08-28 16:25:00,73.0,-99.9,-100.00,North,-999,-999.0,-999.0,-999,0.00,,,0.00,,2013-08-28 22:25:00,
2013-08-28 16:34:00,73.0,-99.9,-100.00,North,-999,-999.0,-999.0,-999,0.00,,,0.00,,2013-08-28 22:34:00,
2013-08-28 16:43:00,73.0,-99.9,-100.00,North,-999,-999.0,-999.0,-999,0.00,,,0.00,,2013-08-28 22:43:00,
2013-08-28 17:22:00,63.0,-99.9,-100.00,North,-999,-999.0,-999.0,-999,0.00,,,0.00,,2013-08-28 23:22:00,
2013-08-28 17:33:00,63.0,-99.9,-100.00,North,-999,-999.0,-999.0,-999,0.00,,,0.00,,2013-08-28 23:33:00,
2013-08-28 17:43:00,63.0,-99.9,-100.00,North,-999,-999.0,-999.0,-999,0.00,,,0.00,,2013-08-28 23:43:00,
2013-08-28 19:22:00,60.0,-99.9,-100.00,North,-999,-999.0,-999.0,-999,0.05,,,0.05,,2013-08-29 01:22:00,
2013-08-28 19:32:00,60.0,-99.9,-100.00,North,-999,-999.0,-999.0,-999,0.05,,,0.05,,2013-08-29 01:32:00,
2013-08-28 19:42:00,60.0,-99.9,-100.00,North,-999,-999.0,-999.0,-999,0.05,,,0.05,,2013-08-29 01:42:00,
2013-08-28 20:22:00,60.0,-99.9,-100.00,North,-999,-999.0,-999.0,-999,0.00,,,0.05,,2013-08-29 02:22:00,
2013-08-28 20:32:00,60.0,-99.9,-100.00,North,-999,-999.0,-999.0,-999,0.00,,,0.05,,2013-08-29 02:32:00,
2013-08-28 20:43:00,60.0,-99.9,-100.00,North,-999,-999.0,-999.0,-999,0.00,,,0.05,,2013-08-29 02:43:00,
2013-08-28 20:45:00,57.0,-99.9,-100.00,North,-999,-999.0,-999.0,-999,0.00,,,-99.99,,2013-08-29 02:45:00,
2013-08-28 21:23:00,57.0,-99.9,-100.00,North,-999,-999.0,-999.0,-999,0.00,,,-99.99,,2013-08-29 03:23:00,
2013-08-28 21:37:00,57.0,-99.9,-100.00,North,-999,-999.0,-999.0,-999,0.00,,,-99.99,,2013-08-29 03:37:00,
2013-08-28 21:45:00,57.0,-99.9,-100.00,North,-999,-999.0,-999.0,-999,0.00,,,0.05,,2013-08-29 03:45:00,
2013-08-28 22:28:00,57.0,-99.9,-100.00,North,-999,-999.0,-999.0,-999,0.00,,,0.05,,2013-08-29 04:28:00,
2013-08-28 22:37:00,57.0,-99.9,-100.00,North,-999,-999.0,-999.0,-999,0.00,,,0.05,,2013-08-29 04:37:00,
2013-08-28 23:23:00,56.0,-99.9,-100.00,North,-999,-999.0,-999.0,-999,0.00,,,0.05,,2013-08-29 05:23:00,
2013-08-28 23:34:00,56.0,-99.9,-100.00,North,-999,-999.0,-999.0,-999,0.00,,,0.05,,2013-08-29 05:34:00,
2013-08-28 23:42:00,56.0,-99.9,-100.00,North,-999,-999.0,-999.0,-999,0.00,,,0.05,,2013-08-29 05:42:00,